EW4819 Weather Reports


Display with metric or nautical units.
time (UTC)temp
F
wind
direction
speed
MPH
gust
MPH
rain 1hr
in
rain 24hr
in
rain mn
in
humidity
%
barometer
mb
20260506211503 52 44 0.0 3.0 0.00 0.00 0.00 67 1013.0
20260506211003 52 44 1.0 4.0 0.00 0.00 0.00 67 1013.0
20260506210503 52 47 2.0 5.0 0.00 0.00 0.00 67 1013.0
20260506210004 53 49 2.0 5.0 0.00 0.00 0.00 67 1012.9
20260506205503 53 50 2.0 5.0 0.00 0.00 0.00 66 1012.8
20260506205003 53 56 2.0 5.0 0.00 0.00 0.00 66 1012.8
20260506204503 53 58 2.0 5.0 0.00 0.00 0.00 66 1012.7
20260506204024 53 45 1.0 4.0 0.00 0.00 0.00 66 1012.7
20260506203504 53 35 1.0 4.0 0.00 0.00 0.00 65 1012.7
20260506203024 54 50 1.0 4.0 0.00 0.00 0.00 65 1012.7
20260506202505 54 52 1.0 3.0 0.00 0.00 0.00 65 1012.6
20260506202003 54 46 1.0 3.0 0.00 0.00 0.00 63 1012.6
20260506201503 54 50 1.0 6.0 0.00 0.00 0.00 63 1012.5
20260506201003 54 53 2.0 8.0 0.00 0.00 0.00 62 1012.5
20260506200504 54 53 2.0 8.0 0.00 0.00 0.00 62 1012.5
20260506200003 54 50 1.0 4.0 0.00 0.00 0.00 62 1012.5
20260506195524 54 43 1.0 4.0 0.00 0.00 0.00 61 1012.4
20260506195003 55 32 0.0 3.0 0.00 0.00 0.00 60 1012.4
20260506194503 55 40 0.0 2.0 0.00 0.00 0.00 58 1012.4
20260506194003 55 45 0.0 2.0 0.00 0.00 0.00 58 1012.3
20260506193503 55 43 1.0 4.0 0.00 0.00 0.00 58 1012.2
20260506193003 55 39 1.0 4.0 0.00 0.00 0.00 57 1012.2
20260506192503 56 47 0.0 3.0 0.00 0.00 0.00 57 1012.1
20260506192001 56 39 1.0 5.0 0.00 0.00 0.00 56 1012.1
20260506191501 56 39 2.0 5.0 0.00 0.00 0.00 57 1012.1
20260506191022 56 31 2.0 5.0 0.00 0.00 0.00 56 1012.0
20260506190501 56 13 2.0 5.0 0.00 0.00 0.00 57 1012.0
20260506190001 56 14 1.0 4.0 0.00 0.00 0.00 57 1012.0
20260506185502 56 23 1.0 6.0 0.00 0.00 0.00 56 1011.9
20260506185002 57 29 1.0 6.0 0.00 0.00 0.00 56 1011.9
20260506184502 57 34 1.0 3.0 0.00 0.00 0.00 54 1011.8
20260506184022 57 36 1.0 3.0 0.00 0.00 0.00 54 1011.9
20260506183502 57 35 1.0 3.0 0.00 0.00 0.00 53 1011.8
20260506183003 57 36 1.0 3.0 0.00 0.00 0.00 52 1011.8
20260506182501 57 37 1.0 4.0 0.00 0.00 0.00 54 1011.7
20260506182001 58 36 1.0 4.0 0.00 0.00 0.00 53 1011.7
20260506181501 58 36 2.0 5.0 0.00 0.00 0.00 53 1011.7
20260506181001 58 49 2.0 6.0 0.00 0.00 0.00 51 1011.6
20260506180501 58 51 1.0 6.0 0.00 0.00 0.00 51 1011.5
20260506180022 58 14 1.0 6.0 0.00 0.00 0.00 52 1011.5
20260506175522 58 354 2.0 6.0 0.00 0.00 0.00 50 1011.4
20260506175001 58 3 2.0 5.0 0.00 0.00 0.00 51 1011.3
20260506174501 58 14 1.0 5.0 0.00 0.00 0.00 50 1011.3
20260506174002 58 1 1.0 2.0 0.00 0.00 0.00 49 1011.3
20260506173501 58 356 1.0 4.0 0.00 0.00 0.00 49 1011.3
20260506173001 58 348 1.0 5.0 0.00 0.00 0.00 48 1011.3
20260506172501 58 344 2.0 5.0 0.00 0.00 0.00 49 1011.3
20260506172001 58 336 2.0 4.0 0.00 0.00 0.00 48 1011.3
20260506171501 58 313 2.0 5.0 0.00 0.00 0.00 49 1011.3
20260506171001 58 324 2.0 8.0 0.00 0.00 0.00 49 1011.2
20260506170501 58 353 2.0 8.0 0.00 0.00 0.00 49 1011.2
20260506170001 58 19 2.0 8.0 0.00 0.00 0.00 50 1011.2
20260506165501 58 35 2.0 5.0 0.00 0.00 0.00 49 1011.2
20260506165001 58 28 2.0 5.0 0.00 0.00 0.00 49 1011.3
20260506164501 58 20 2.0 6.0 0.00 0.00 0.00 49 1011.3
20260506164001 58 11 2.0 8.0 0.00 0.00 0.00 50 1011.3
20260506163522 58 16 2.0 8.0 0.00 0.00 0.00 49 1011.3
20260506163001 58 8 2.0 4.0 0.00 0.00 0.00 48 1011.3
20260506162522 59 14 2.0 4.0 0.00 0.00 0.00 49 1011.3
20260506162001 59 47 1.0 4.0 0.00 0.00 0.00 49 1011.3
20260506161522 59 20 1.0 4.0 0.00 0.00 0.00 49 1011.2
20260506161001 59 343 2.0 6.0 0.00 0.00 0.00 48 1011.2
20260506160501 59 345 1.0 6.0 0.00 0.00 0.00 49 1011.3
20260506160001 59 39 1.0 6.0 0.00 0.00 0.00 51 1011.3
20260506155501 59 36 2.0 6.0 0.00 0.00 0.00 51 1011.3
20260506155023 59 36 2.0 6.0 0.00 0.00 0.00 50 1011.4
20260506154502 59 39 1.0 6.0 0.00 0.00 0.00 50 1011.3
20260506154002 59 358 1.0 5.0 0.00 0.00 0.00 49 1011.4
20260506153501 59 12 2.0 5.0 0.00 0.00 0.00 49 1011.3
20260506153003 59 30 1.0 4.0 0.00 0.00 0.00 49 1011.3
20260506152503 59 337 1.0 4.0 0.00 0.00 0.00 50 1011.4
20260506152023 60 335 2.0 4.0 0.00 0.00 0.00 49 1011.3
20260506151501 60 13 1.0 4.0 0.00 0.00 0.00 49 1011.4
20260506151001 59 346 2.0 5.0 0.00 0.00 0.00 51 1011.4
20260506150501 59 327 2.0 8.0 0.00 0.00 0.00 49 1011.4
20260506150001 59 15 2.0 8.0 0.00 0.00 0.00 49 1011.4
20260506145501 59 33 2.0 6.0 0.00 0.00 0.00 49 1011.4
20260506145001 59 28 2.0 6.0 0.00 0.00 0.00 47 1011.5
20260506144503 59 55 2.0 6.0 0.00 0.00 0.00 50 1011.5
20260506144001 59 37 2.0 7.0 0.00 0.00 0.00 48 1011.5
20260506143501 60 23 3.0 10.0 0.00 0.00 0.00 49 1011.5
20260506143001 60 27 3.0 10.0 0.00 0.00 0.00 49 1011.5
20260506142501 61 1 4.0 8.0 0.00 0.00 0.00 48 1011.5
20260506142001 61 336 3.0 8.0 0.00 0.00 0.00 44 1011.5
20260506141501 61 335 3.0 8.0 0.00 0.00 0.00 46 1011.5
20260506141001 60 346 2.0 8.0 0.00 0.00 0.00 50 1011.5
20260506140522 60 6 2.0 8.0 0.00 0.00 0.00 49 1011.6
20260506140001 60 11 3.0 8.0 0.00 0.00 0.00 46 1011.5
20260506135501 61 31 2.0 7.0 0.00 0.00 0.00 45 1011.6
20260506135001 62 48 3.0 9.0 0.00 0.00 0.00 45 1011.6
20260506134501 63 36 3.0 9.0 0.00 0.00 0.00 46 1011.6
20260506134001 60 30 3.0 9.0 0.00 0.00 0.00 46 1011.6
20260506133501 61 30 3.0 9.0 0.00 0.00 0.00 45 1011.6
20260506133022 61 30 3.0 9.0 0.00 0.00 0.00 44 1011.6
20260506132501 60 13 3.0 7.0 0.00 0.00 0.00 44 1011.5
20260506132001 60 353 2.0 6.0 0.00 0.00 0.00 45 1011.6
20260506131502 60 32 2.0 6.0 0.00 0.00 0.00 45 1011.6
20260506131022 61 58 3.0 7.0 0.00 0.00 0.00 44 1011.6
20260506130501 61 42 4.0 9.0 0.00 0.00 0.00 47 1011.6
20260506130003 61 9 4.0 9.0 0.00 0.00 0.00 43 1011.7
20260506125501 61 352 4.0 9.0 0.00 0.00 0.00 46 1011.6
20260506125002 60 5 4.0 9.0 0.00 0.00 0.00 48 1011.7
20260506124502 60 35 4.0 8.0 0.00 0.00 0.00 47 1011.7
20260506124002 60 58 4.0 9.0 0.00 0.00 0.00 45 1011.7
20260506123502 60 60 5.0 11.0 0.00 0.00 0.00 46 1011.6
20260506123002 61 59 4.0 11.0 0.00 0.00 0.00 43 1011.7
20260506122502 61 54 4.0 10.0 0.00 0.00 0.00 44 1011.7
20260506122003 61 49 4.0 13.0 0.00 0.00 0.00 43 1011.7
20260506121522 61 43 4.0 13.0 0.00 0.00 0.00 41 1011.7
20260506121002 60 49 4.0 11.0 0.00 0.00 0.00 43 1011.8
20260506120501 61 43 3.0 10.0 0.00 0.00 0.00 40 1011.7
20260506120002 60 26 3.0 9.0 0.00 0.00 0.00 51 1011.8
20260506115501 59 29 3.0 9.0 0.00 0.00 0.00 47 1011.9
20260506115002 60 10 3.0 8.0 0.00 0.00 0.00 49 1011.8
20260506114522 60 356 3.0 10.0 0.00 0.00 0.00 52 1011.9
20260506114003 60 12 4.0 13.0 0.00 0.00 0.00 50 1012.0
20260506113502 60 10 4.0 13.0 0.00 0.00 0.00 47 1011.9
20260506113001 60 10 3.0 9.0 0.00 0.00 0.00 47 1012.0
20260506112522 60 35 3.0 8.0 0.00 0.00 0.00 51 1011.9
20260506112003 60 9 3.0 11.0 0.00 0.00 0.00 49 1012.0
20260506111502 60 343 3.0 11.0 0.00 0.00 0.00 51 1012.0
20260506111002 59 352 3.0 10.0 0.00 0.00 0.00 51 1012.0
20260506110501 59 46 4.0 10.0 0.00 0.00 0.00 53 1012.0
20260506110003 59 62 4.0 10.0 0.00 0.00 0.00 51 1012.1
20260506105502 59 46 4.0 9.0 0.00 0.00 0.00 53 1012.0
20260506105003 59 31 3.0 8.0 0.00 0.00 0.00 52 1012.1
20260506104502 59 25 3.0 11.0 0.00 0.00 0.00 51 1012.1
20260506104002 59 9 3.0 11.0 0.00 0.00 0.00 51 1012.1
20260506103502 58 351 3.0 10.0 0.00 0.00 0.00 55 1012.1
20260506101502 57 330 3.0 9.0 0.00 0.00 0.00 60 1012.0
20260506101003 57 340 3.0 9.0 0.00 0.00 0.00 57 1012.1
20260506100502 57 15 3.0 8.0 0.00 0.00 0.00 59 1012.1
20260506100002 56 35 3.0 7.0 0.00 0.00 0.00 61 1012.1
20260506095502 56 17 3.0 11.0 0.00 0.00 0.00 60 1012.1
20260506095002 56 356 4.0 11.0 0.00 0.00 0.00 61 1012.1
20260506094503 56 356 3.0 9.0 0.00 0.00 0.00 62 1012.1
20260506094002 55 8 3.0 9.0 0.00 0.00 0.00 65 1012.1
20260506093504 54 14 2.0 7.0 0.00 0.00 0.00 65 1012.2
20260506093003 54 27 3.0 9.0 0.00 0.00 0.00 65 1012.2
20260506092502 54 38 3.0 11.0 0.00 0.00 0.00 64 1012.2
20260506092002 54 18 4.0 11.0 0.00 0.00 0.00 66 1012.2
20260506091523 53 4 4.0 9.0 0.00 0.00 0.00 66 1012.2
20260506091002 53 357 3.0 9.0 0.00 0.00 0.00 66 1012.2
20260506090502 53 346 3.0 8.0 0.00 0.00 0.00 66 1012.3
20260506090003 53 349 3.0 8.0 0.00 0.00 0.00 65 1012.3
20260506085502 53 348 3.0 8.0 0.00 0.00 0.00 67 1012.2
20260506085002 53 358 2.0 7.0 0.00 0.00 0.00 68 1012.2
20260506084525 53 357 3.0 8.0 0.00 0.00 0.00 69 1012.2
20260506084002 53 348 3.0 8.0 0.00 0.00 0.00 69 1012.3
20260506083502 53 11 3.0 7.0 0.00 0.00 0.00 70 1012.2
20260506083002 52 28 3.0 6.0 0.00 0.00 0.00 72 1012.2
20260506082523 52 19 2.0 6.0 0.00 0.00 0.00 72 1012.3
20260506082002 52 25 2.0 6.0 0.00 0.00 0.00 73 1012.2
20260506081502 52 24 2.0 8.0 0.00 0.00 0.00 73 1012.2
20260506081002 52 44 3.0 9.0 0.00 0.00 0.00 72 1012.1
20260506080502 52 42 3.0 9.0 0.00 0.00 0.00 71 1012.1
20260506073502 49 9 2.0 5.0 0.00 0.00 0.00 78 1012.1
20260506073002 49 4 2.0 5.0 0.00 0.00 0.00 78 1012.0
20260506072523 49 11 2.0 5.0 0.00 0.00 0.00 78 1012.0
20260506072003 49 13 2.0 5.0 0.00 0.00 0.00 79 1012.0
20260506071502 49 4 2.0 6.0 0.00 0.00 0.00 79 1012.0
20260506071002 49 3 2.0 8.0 0.00 0.00 0.00 79 1012.0
20260506070502 49 8 2.0 8.0 0.00 0.00 0.00 79 1011.9
20260506062503 48 22 2.0 9.0 0.00 0.00 0.00 80 1011.6
20260506062003 48 20 2.0 9.0 0.00 0.00 0.00 81 1011.6
20260506061505 48 31 2.0 5.0 0.00 0.00 0.00 81 1011.6
20260506061003 48 30 2.0 5.0 0.00 0.00 0.00 81 1011.5
20260506060503 48 15 2.0 9.0 0.00 0.00 0.00 82 1011.5
20260506051002 49 30 1.0 5.0 0.00 0.00 0.00 82 1011.2
20260506050502 49 28 2.0 6.0 0.00 0.00 0.00 82 1011.2
20260506045002 49 22 2.0 8.0 0.00 0.00 0.00 83 1011.1
20260506044502 49 26 2.0 8.0 0.00 0.00 0.00 82 1011.1
20260506044002 49 24 2.0 8.0 0.00 0.00 0.00 82 1011.1
20260506043502 49 17 2.0 6.0 0.00 0.00 0.00 82 1011.0
20260506043002 49 25 2.0 6.0 0.00 0.00 0.00 82 1011.0
20260506042502 50 28 2.0 5.0 0.00 0.00 0.00 82 1010.9
20260506042002 50 28 1.0 5.0 0.00 0.00 0.00 82 1010.9
20260506041504 50 25 2.0 5.0 0.00 0.00 0.00 82 1010.9
20260506041002 50 9 2.0 5.0 0.00 0.00 0.00 82 1011.0
20260506040502 50 9 2.0 8.0 0.00 0.00 0.00 82 1010.9
20260506040002 50 27 2.0 8.0 0.00 0.00 0.00 82 1010.9
20260506035523 50 16 3.0 8.0 0.00 0.00 0.00 81 1010.9
20260506035002 50 3 2.0 8.0 0.00 0.00 0.00 81 1011.0
20260506034502 50 2 1.0 5.0 0.00 0.00 0.00 81 1011.0
20260506034002 50 11 1.0 5.0 0.00 0.00 0.00 81 1011.0
20260506033502 50 8 2.0 7.0 0.00 0.00 0.00 81 1011.0
20260506033002 50 15 1.0 7.0 0.00 0.00 0.00 81 1010.9
20260506032523 50 25 1.0 5.0 0.00 0.00 0.00 80 1010.9
20260506032026 51 24 2.0 5.0 0.00 0.00 0.00 80 1011.0
20260506031525 51 21 2.0 6.0 0.00 0.00 0.00 80 1010.9
20260506031026 51 26 2.0 7.0 0.00 0.00 0.00 80 1010.9
20260506030504 51 31 3.0 7.0 0.00 0.00 0.00 80 1010.9
20260506030004 51 32 2.0 5.0 0.00 0.00 0.00 79 1010.9
20260506025523 51 35 2.0 5.0 0.00 0.00 0.00 79 1010.9
20260506025004 51 36 2.0 6.0 0.00 0.00 0.00 79 1010.9
20260506024523 51 35 2.0 6.0 0.00 0.00 0.00 79 1010.9
20260506024002 51 30 2.0 4.0 0.00 0.00 0.00 79 1011.0
20260506023502 51 30 2.0 6.0 0.00 0.00 0.00 79 1010.9
20260506023003 51 44 2.0 7.0 0.00 0.00 0.00 79 1011.1
20260506022502 51 43 2.0 8.0 0.00 0.00 0.00 79 1011.0
20260506022002 51 35 2.0 8.0 0.00 0.00 0.00 79 1011.0
20260506021502 52 33 2.0 6.0 0.00 0.00 0.00 79 1011.0
20260506021002 52 22 2.0 6.0 0.00 0.00 0.00 80 1010.9
20260506020502 52 24 2.0 6.0 0.00 0.00 0.00 80 1010.9
20260506020002 52 42 1.0 4.0 0.00 0.00 0.00 80 1011.0
20260506015502 52 53 1.0 4.0 0.00 0.00 0.00 80 1010.9
20260506015002 52 50 1.0 4.0 0.00 0.00 0.00 80 1010.9
20260506014525 52 37 1.0 4.0 0.00 0.00 0.00 80 1011.0
20260506014002 52 35 2.0 7.0 0.00 0.00 0.00 79 1011.0
20260506013504 52 41 2.0 7.0 0.00 0.00 0.00 79 1010.9
20260506013024 52 33 2.0 5.0 0.00 0.00 0.00 79 1010.9
20260506012503 52 30 2.0 5.0 0.00 0.00 0.00 79 1010.9
20260506012004 52 34 2.0 5.0 0.00 0.00 0.00 79 1010.9
20260506011525 53 37 1.0 4.0 0.00 0.00 0.00 78 1010.9
20260506011003 53 24 1.0 6.0 0.00 0.00 0.00 78 1010.9
20260506010502 53 16 1.0 6.0 0.00 0.00 0.00 78 1010.9
20260506010003 53 4 1.0 3.0 0.00 0.00 0.00 78 1010.9
20260506005502 53 10 1.0 3.0 0.00 0.00 0.00 78 1011.0
20260506005004 53 20 1.0 4.0 0.00 0.00 0.00 78 1011.0
20260506004524 53 27 2.0 5.0 0.00 0.00 0.00 78 1010.9
20260506004003 53 36 1.0 5.0 0.00 0.00 0.00 78 1010.9
20260506003503 53 44 1.0 3.0 0.00 0.00 0.00 78 1010.9
20260506003003 53 40 1.0 5.0 0.00 0.00 0.00 78 1011.0
20260506002502 53 39 1.0 5.0 0.00 0.00 0.00 77 1010.9
20260506002003 53 33 1.0 3.0 0.00 0.00 0.00 77 1010.9
20260506001504 53 355 0.0 2.0 0.00 0.00 0.00 77 1010.9
20260506001004 54 355 0.0 2.0 0.00 0.00 0.00 76 1010.9
20260506000504 54 341 0.0 2.0 0.00 0.00 0.00 76 1010.9
20260506000004 54 336 1.0 2.0 0.00 0.00 0.00 76 1010.9
20260505235525 54 346 0.0 2.0 0.00 0.00 0.00 76 1010.9
20260505235003 54 21 1.0 8.0 0.00 0.00 0.00 76 1010.8
20260505234503 54 32 2.0 8.0 0.00 0.00 0.00 76 1010.9
20260505234003 54 44 1.0 4.0 0.00 0.00 0.00 76 1010.8
20260505233524 54 38 1.0 4.0 0.00 0.00 0.00 76 1010.9
20260505233024 54 27 1.0 4.0 0.00 0.00 0.00 75 1010.9
20260505232503 54 26 1.0 4.0 0.00 0.00 0.00 75 1010.8
20260505232003 54 30 1.0 3.0 0.00 0.00 0.00 75 1010.9
20260505231503 54 20 0.0 3.0 0.00 0.00 0.00 75 1010.8
20260505231003 54 348 0.0 3.0 0.00 0.00 0.00 74 1010.8
20260505230504 54 348 1.0 4.0 0.00 0.00 0.00 74 1010.8
20260505230003 54 344 1.0 4.0 0.00 0.00 0.00 74 1010.8
20260505225503 54 343 1.0 4.0 0.00 0.00 0.00 74 1010.8
20260505225003 54 346 1.0 4.0 0.00 0.00 0.00 74 1010.8
20260505224503 54 336 1.0 4.0 0.00 0.00 0.00 73 1010.7
20260505224003 54 340 1.0 4.0 0.00 0.00 0.00 73 1010.7
20260505223503 54 347 1.0 3.0 0.00 0.00 0.00 73 1010.8
20260505223003 54 336 1.0 4.0 0.00 0.00 0.00 73 1010.8
20260505222503 55 342 1.0 5.0 0.00 0.00 0.00 73 1010.8
20260505222003 55 344 1.0 6.0 0.00 0.00 0.00 73 1010.8
20260505221503 55 342 1.0 6.0 0.00 0.00 0.00 73 1010.7
20260505221003 55 328 1.0 4.0 0.00 0.00 0.00 72 1010.7
20260505220524 55 319 1.0 4.0 0.00 0.00 0.00 72 1010.8
20260505220003 55 314 1.0 4.0 0.00 0.00 0.00 72 1010.8
20260505215524 55 316 1.0 4.0 0.00 0.00 0.00 72 1010.8
20260505215003 55 327 1.0 3.0 0.00 0.00 0.00 72 1010.8
20260505214503 55 327 1.0 4.0 0.00 0.00 0.00 72 1010.8
20260505214003 55 322 1.0 4.0 0.00 0.00 0.00 72 1010.8
20260505213504 55 319 1.0 4.0 0.00 0.00 0.00 72 1010.8
20260505213004 55 317 1.0 4.0 0.00 0.00 0.00 71 1010.8
20260505212504 55 324 1.0 4.0 0.00 0.00 0.00 71 1010.8
20260505212003 55 330 1.0 4.0 0.00 0.00 0.00 71 1010.8